Baton Rouge, LA

7:06 AM CST on December 15, 2019 (GMT -0600)
Baton Rouge Metro-Ryan

Weather History for KBTR - November, 2019

Change the Weather History Date:

Thursday, November 14, 2019

  Actual Average Record
Temperature  
Mean Temperature 49 °F 61 °F  
Max Temperature 53 °F 72 °F 85 °F (1951)
Min Temperature 44 °F 49 °F 26 °F (1907)
Degree Days  
Heating Degree Days 16 6  
Month to date heating degree days 153 64  
Since 1 July heating degree days 182 110  
Cooling Degree Days 0 2  
Month to date cooling degree days 9 32  
Year to date cooling degree days 3123 2782  
Moisture  
Dew Point 38 °F    
Average Humidity 71    
Maximum Humidity 92    
Minimum Humidity 50    
Precipitation  
Precipitation 0.02 in 0.13 in 2.00 in (1909)
Month to date precipitation 0.16 1.94  
Year to date precipitation 59.72 52.89  
Snow  
Snow 0.00 in - - ()
Month to date snowfall 0.0  
Since 1 July snowfall 0.0  
Since 1 September snowfall 0.0  
Snow Depth 0.00 in    
Sea Level Pressure  
Sea Level Pressure 30.25 in    
Wind  
Wind Speed 5 mph (North)    
Max Wind Speed 9 mph    
Max Gust Speed 13 mph    
Visibility 10 miles    
Events Rain    
T = Trace of Precipitation, MM = Missing Value Source: NWS Daily Summary

Daily Weather History Graph

Daily Weather History Graph

Search for Another Location

Airport or City:

Astronomy

Nov. 14, 2019 Rise Set
Actual Time 6:29 AM CST 5:08 PM CST
Civil Twilight 6:04 AM CST 5:33 PM CST
Nautical Twilight 5:35 AM CST 6:02 PM CST
Astronomical Twilight 5:06 AM CST 6:31 PM CST
Moon 6:59 PM CST (11/14) 8:20 AM CST (11/14)
Length of Visible Light 11h 29m
Length of Day
10h 38m
Waning Gibbous, 95% of the Moon is Illuminated
Nov 14
Waning Gibbous
Nov 19
Last Quarter
Nov 26
New
Dec 4
First Quarter
Dec 11
Full

Hourly Weather History & Observations

Time (CST) Temp. Windchill Dew Point Humidity Pressure Visibility Wind Dir Wind Speed Gust Speed Precip Events Conditions
12:53 AM 44.1 °F 41.5 °F 35.1 °F 71% 30.22 in 10.0 mi NNW 4.6 mph - 0.00 in Rain Light Rain
1:53 AM 44.1 °F 42.5 °F 37.0 °F 76% 30.22 in 10.0 mi NNW 3.5 mph - 0.00 in   Overcast
2:53 AM 45.0 °F 42.6 °F 36.0 °F 71% 30.22 in 10.0 mi NNE 4.6 mph - N/A   Overcast
3:53 AM 45.0 °F 41.8 °F 34.0 °F 65% 30.21 in 10.0 mi North 5.8 mph - N/A   Overcast
4:53 AM 45.0 °F 42.6 °F 34.0 °F 65% 30.20 in 10.0 mi NNE 4.6 mph - N/A   Overcast
5:53 AM 46.0 °F 43.9 °F 34.0 °F 63% 30.22 in 10.0 mi NNE 4.6 mph - N/A   Overcast
6:53 AM 46.0 °F 43.1 °F 35.1 °F 66% 30.24 in 10.0 mi NE 5.8 mph - N/A   Overcast
7:53 AM 46.9 °F - 35.1 °F 63% 30.25 in 10.0 mi NNE 4.6 mph - N/A   Overcast
8:53 AM 48.0 °F - 36.0 °F 63% 30.26 in 10.0 mi NE 5.8 mph - N/A   Overcast
10:53 AM 50.0 °F - 36.0 °F 59% 30.27 in 10.0 mi NNE 3.5 mph - N/A   Overcast
11:53 AM 52.0 °F - 36.0 °F 54% 30.26 in 10.0 mi NW 8.1 mph - N/A   Overcast
12:53 PM 53.1 °F - 36.0 °F 52% 30.23 in 10.0 mi North 5.8 mph - N/A   Overcast
1:53 PM 50.0 °F - 39.9 °F 68% 30.21 in 10.0 mi NNE 4.6 mph - 0.01 in Rain Light Rain
2:53 PM 48.9 °F - 42.1 °F 77% 30.21 in 7.0 mi NNE 5.8 mph - 0.00 in Rain Light Rain
3:53 PM 48.9 °F - 43.0 °F 80% 30.22 in 10.0 mi North 4.6 mph - 0.01 in   Overcast
4:53 PM 48.0 °F - 41.0 °F 77% 30.24 in 10.0 mi North 5.8 mph - 0.00 in   Overcast
5:53 PM 46.9 °F - 42.1 °F 83% 30.26 in 10.0 mi NNW 4.6 mph - 0.00 in Rain Light Rain
6:53 PM 46.0 °F 41.9 °F 42.1 °F 86% 30.27 in 10.0 mi North 8.1 mph - 0.00 in   Overcast
7:53 PM 45.0 °F 42.6 °F 41.0 °F 86% 30.30 in 10.0 mi North 4.6 mph - N/A   Overcast
8:53 PM 45.0 °F 41.8 °F 41.0 °F 86% 30.30 in 10.0 mi North 5.8 mph - N/A   Overcast
9:53 PM 45.0 °F 42.6 °F 41.0 °F 86% 30.30 in 10.0 mi North 4.6 mph - N/A   Overcast
10:53 PM 45.0 °F - 42.1 °F 90% 30.30 in 10.0 mi Calm Calm - N/A   Overcast
11:20 PM 45.0 °F 41.8 °F 41.0 °F 86% 30.31 in 10.0 mi NNW 5.8 mph - N/A   Overcast
11:53 PM 44.1 °F 41.5 °F 39.9 °F 85% 30.31 in 10.0 mi NNW 4.6 mph - N/A   Overcast